Home   Weather   Kowloon   Past weeks

Flag for Hong Kong Past Weather in Kowloon, Hong Kong — Yesterday and Last 2 Weeks

Now
52 °F

Scattered clouds.


Feels Like: 47 °F
Forecast: 54 / 63 °F
Wind: 15 mph from North

Location: National Airport

Current Time: Feb 25, 2017 at 3:14:11 pm

Latest Report: Feb 25, 2017 at 2:30 pm


Visibility: N/A

Pressure: 30.09 "Hg

Humidity: 88%

Dew Point: 48 °F

Location of KowloonLocation

Past Weather in Kowloon — Graph

°F

Kowloon Temperature Yesterday

Maximum temperature yesterday: 55 °F (at 12:00 am)
Minimum temperature yesterday: 52 °F (at 4:00 am)
Average temperature yesterday: 53 °F

High & Low Weather Summary for the Past Weeks

 TemperatureHumidityPressure
High79 °F (Feb 18, 2:00 pm)100% (Feb 22, 2:19 am)30.42 "Hg (Feb 22, 2:19 am)
Low50 °F (Feb 25, 4:30 am)31% (Feb 14, 5:00 pm)29.86 "Hg (Feb 20, 3:30 pm)
Average64 °F67%30.16 "Hg
* Reported Feb 10 2:00 pm — Feb 25 2:00 pm, Kowloon, Weather by CustomWeather, © 2017

Note: Actual official high and low records may vary slightly from our data, if they occured in-between our weather recording intervals... More about our weather records

Advertising

Kowloon Weather History for the Previous 24 Hours

Scroll right to see more
 ConditionsComfort  
Time TempWeatherWind HumidityBarometerVisibility
2:00 pm
Sat, Feb 25
52 °FLight rain. Scattered clouds.7 mph88%30.12 "HgN/A
1:30 pm54 °FLight rain. Scattered clouds.7 mph82%30.12 "HgN/A
1:00 pm52 °FLight rain. Scattered clouds.5 mph88%30.15 "Hg6 mi
12:30 pm50 °FLight rain. Scattered clouds.10 mph94%30.18 "Hg4 mi
12:00 pm50 °FLight rain. Fog.14 mph94%30.18 "Hg2 mi
11:34 am50 °FLight rain. Fog.14 mph94%30.21 "Hg3 mi
11:00 am50 °FLight rain. Scattered clouds.10 mph94%30.21 "Hg3 mi
10:30 am50 °FLight rain. Fog.13 mph94%30.24 "Hg2 mi
10:18 am50 °FLight rain. Scattered clouds.12 mph88%30.21 "Hg4 mi
10:00 am50 °FLight rain. Fog.12 mph94%30.24 "Hg2 mi
9:30 am50 °FLight rain. Fog.14 mph94%30.21 "Hg2 mi
9:15 am50 °FLight rain. Fog.15 mph94%30.24 "Hg2 mi
9:00 am50 °FLight rain. Scattered clouds.12 mph94%30.24 "Hg4 mi
8:30 am50 °FLight rain. Scattered clouds.8 mph94%30.21 "Hg4 mi
8:00 am50 °FLight rain. Fog.12 mph94%30.21 "Hg3 mi
7:30 am50 °FLight rain. Scattered clouds.8 mph94%30.18 "Hg3 mi
7:00 am50 °FLight rain. Fog.12 mph94%30.18 "Hg2 mi
6:30 am50 °FLight rain. Passing clouds.8 mph94%30.18 "Hg4 mi
6:00 am50 °FLight rain. Passing clouds.12 mph94%30.18 "Hg4 mi
5:30 am50 °FLight rain. Passing clouds.10 mph94%30.15 "Hg4 mi
5:00 am50 °FLight rain. Passing clouds.10 mph88%30.15 "Hg3 mi
4:30 am50 °FPassing clouds.7 mph88%30.15 "HgN/A
4:00 am52 °FPassing clouds.8 mph77%30.15 "HgN/A
3:30 am52 °FPassing clouds.9 mph77%30.15 "HgN/A
3:00 am54 °FPassing clouds.7 mph72%30.18 "HgN/A
2:30 am54 °FPassing clouds.10 mph72%30.18 "HgN/A
2:00 am54 °FPassing clouds.7 mph67%30.18 "HgN/A
1:30 am54 °FPassing clouds.13 mph67%30.21 "HgN/A
1:00 am54 °FPassing clouds.8 mph72%30.21 "HgN/A
12:30 am54 °FPassing clouds.5 mph67%30.21 "HgN/A
12:00 am54 °FPassing clouds.6 mph67%30.21 "HgN/A
11:30 pm
Fri, Feb 24
54 °FPassing clouds.13 mph72%30.21 "HgN/A
11:00 pm54 °FPassing clouds.12 mph72%30.21 "HgN/A
10:30 pm54 °FPassing clouds.12 mph72%30.21 "HgN/A
10:00 pm54 °FPassing clouds.10 mph72%30.21 "HgN/A
9:30 pm54 °FPassing clouds.9 mph72%30.21 "HgN/A
9:00 pm54 °FPassing clouds.7 mph72%30.21 "HgN/A
8:30 pm54 °FPassing clouds.8 mph72%30.21 "HgN/A
8:00 pm54 °FPassing clouds.9 mph72%30.21 "HgN/A
7:30 pm54 °FPassing clouds.13 mph72%30.18 "HgN/A
7:00 pm54 °FPassing clouds.9 mph72%30.18 "HgN/A
6:30 pm54 °FPassing clouds.14 mph72%30.18 "HgN/A
6:00 pm54 °FScattered clouds.7 mph72%30.15 "HgN/A
5:30 pm54 °FScattered clouds.7 mph72%30.15 "HgN/A
5:00 pm54 °FScattered clouds.7 mph72%30.15 "HgN/A
4:30 pm52 °FScattered clouds.6 mph82%30.15 "HgN/A
4:00 pm52 °FScattered clouds.7 mph82%30.15 "HgN/A
3:30 pm52 °FScattered clouds.12 mph82%30.15 "HgN/A
3:00 pm52 °FScattered clouds.12 mph82%30.18 "HgN/A
Weather by CustomWeather, © 2017

See weather overviewHow to use our weather pages